www.pogodaiklimat.ru

Погода и климат >> Архив погоды >> Беларусь >> Воложин


ПОГОДА в Воложине

  • Прогноз погоды в Воложине
  • Монитор погоды в Воложине
  • Климат города

АРХИВ ПОГОДЫ в Воложине

Время (UTC), дата Ветер
(напр.,м/с)
 
Видим.   Явления Облачность Т
(С)
Тd
(С)
f
(%)
Тe
(С)
Тes
(С)
Комфортность P
(гПа)
Po
(гПа)
Тmin
(С)
Tmax
(С)
R
(мм)
R24
(мм)
S
(см)
09 13.09 СЗ 2 35 км 6/0
[Ac trans]
+17.3 +8.8 57 +18 +22 1020.0 992.7
12 13.09 СЗ 2 35 км 8/0
[Ac trans]
+19.9 +7.5 45 +21 +25 комфорт 1019.5 992.5
15 13.09 С 1 35 км 8/0
[Ac trans Ci fib]
+18.3 +6.7 47 +20 +20 1019.0 991.9
18 13.09 С 1 30 км 8/0
[Ac trans]
+13.9 +8.4 69 +14 +14 1019.4 991.8 +20.5
21 13.09 С 1 30 км 6/0
[Ac lent]
+13.1 +8.8 75 +13 +13 1019.6 991.9
00 14.09 СВ 2 35 км 6/0
[Ac lent]
+12.2 +9.1 81 +11 +11 1019.7 991.9
03 14.09 СВ 1 35 км 9/0
[Ac und]
+12.6 +9.2 80 +13 +13 1019.5 991.7 +12.1
06 14.09 С 1 35 км 9/9 720 м
[Sc]
+12.9 +10.1 83 +13 +13 1020.0 992.3 +12.1
09 14.09 СВ 2 21 км слабый дождь 10/10 270 м
[Frnb Ns]
+13.5 +11.7 89 +13 +13 1020.7 993.0
12 14.09 СВ 2 35 км {дождь} 8/0
[Ac und]
+15.1 +9.9 71 +15 +18 1020.2 992.7
15 14.09 В 1 35 км 6/0
[Ac trans Ci fib]
+16.1 +8.9 62 +17 +18 1019.8 992.4
18 14.09 штиль 0 17 км 6/0
[Ci fib]
+11.7 +9.6 87 +11 +11 1021.0 993.1 +16.3 1
21 14.09 С 2 35 км ясно +12.3 +9.2 81 +11 +11 1020.5 992.7
00 15.09 СВ 2 35 км ясно +10.9 +9.4 90 +10 +10 1020.3 992.3
03 15.09 СВ 3 35 км 8/0
[Ci fib]
+10.2 +8.3 88 +8 +8 1019.7 991.7 +10.1
06 15.09 СВ 3 35 км 9/0
[Ac As]
+10.9 +8.3 84 +9 +9 1019.1 991.2 +9.8
09 15.09 СВ 2 11 км слабый дождь 10/10 240 м
[Frnb Ns]
+10.3 +9.3 94 +9 +9 1019.1 991.1
12 15.09 В 2 27 км слабый дождь 10/10 270 м
[Frnb Ns]
+12.3 +11.4 94 +11 +11 1017.3 989.6
15 15.09 З 2 35 км {дождь} 10/10 270 м
[St]
+13.8 +11.9 88 +13 +13 1017.3 989.7
18 15.09 ЮЗ 1 7000 м дымка {дождь} 6/0
[Ac trans]
+12.3 +12.0 98 +12 +12 1017.8 990.1 +14.1 8
21 15.09 ЮЗ 1 12 км {ливн. осадки} 9/9 1350 м
[Sc]
+12.4 +12.1 98 +12 +12 1017.7 990.0
00 16.09 З 2 600 м туман {ливн. осадки} ?/? +10.7 +10.6 99 +9 +9 1017.9 990.0
03 16.09 З 1 500 м туман ?/? +10.4 +10.3 99 +10 +10 1018.2 990.2 +10.4
06 16.09 З 2 19 км {туман} 10/10 210 м
[St]
+11.5 +11.4 99 +10 +10 1019.6 991.7 +10.1 0.4
09 16.09 СЗ 3 35 км 6/6 1000 м
[Cu med, cong]
+14.4 +7.3 62 +14 +16 1020.7 993.1
12 16.09 З 4
{10}
35 км 6/6 1000 м
[Cu med, cong]
+18.3 +5.7 44 +18 +20 1020.6 993.4
15 16.09 З 3
{10}
35 км 3/3 1000 м
[Cu med, cong]
+17.0 +4.1 42 +17 +17 1021.0 993.7
18 16.09 СЗ 2 35 км ясно +13.0 +4.1 55 +12 +12 1022.6 994.8 +18.4
21 16.09 З 1 35 км ясно +9.2 +4.8 74 +9 +9 1023.5 995.3
00 17.09 З 1 35 км ясно +7.1 +5.3 88 +6 +6 1024.0 995.5
03 17.09 штиль 0 35 км 9/0
[Ac As]
+6.4 +5.3 93 +5 +5 1024.0 995.5 +6.1
06 17.09 Ю 2 30 км 8/0
[Ac trans]
+8.5 +6.8 89 +7 +7 1023.8 995.5 +5.9
09 17.09 ЮЗ 5 35 км 8/0
[Ac trans]
+16.8 +8.4 58 +16 +18 1022.2 994.8
12 17.09 ЮЗ 5-10
{11}
35 км 8/4 1000 м
[Cu med, cong Ac trans Ci fib]
+18.5 +7.7 49 +18 +20 1021.0 993.8
15 17.09 ЮЗ 5
{10}
35 км 8/0
[Ci fib]
+18.0 +8.8 55 +18 +18 1019.5 992.3
18 17.09 ЮЗ 1 35 км 6/0
[Ci fib]
+13.6 +9.7 77 +14 +14 1020.3 992.6 +19.7
21 17.09 ЮЗ 1 35 км 9/0
[Ac und]
+12.7 +9.2 79 +13 +13 1019.9 992.1
00 18.09 ЮЗ 1 35 км 9/0
[Ac und]
+11.7 +9.3 85 +12 +12 1019.8 991.9
03 18.09 З 2 23 км 9/0
[Ac lent]
+10.4 +9.2 92 +9 +9 1020.4 992.4 +10.4
06 18.09 ЮЗ 2 18 км 9/0
[Ac lent]
+11.3 +9.9 91 +10 +10 1021.2 993.3 +10.0
09 18.09 ЮЗ 2 35 км 8/0
[Ci fib]
+17.1 +11.5 70 +17 +23 1021.2 993.9
12 18.09 З 2 35 км 8/0
[Ci fib]
+22.1 +10.3 47 +24 +29 комфорт 1019.7 992.9
15 18.09 ЮЗ 3 22 км 3/0
[Ci fib]
+21.9 +11.0 50 +24 +24 комфорт 1018.8 992.0
18 18.09 штиль 0 23 км ясно +16.8 +10.7 67 +17 +17 1019.8 992.5 +23.4
21 18.09 Ю 1 26 км ясно +14.4 +10.5 77 +15 +15 1019.9 992.3
00 19.09 штиль 0 26 км ясно +12.4 +10.2 86 +12 +12 1019.9 992.1
03 19.09 В 1 10 км ясно +11.7 +10.9 95 +11 +11 1020.0 1001.3 +11.6
06 19.09 Ю 1 13 км 6/0
[Ci fib]
+14.7 +12.4 86 +15 +17 1019.3 991.8 +11.2
09 19.09 ЮЗ 3 10 км ясно +22.7 +14.3 59 +26 +32 жарко 1018.0 1000.0
12 19.09 ЮЗ 4 10 км ясно +25.7 +12.9 45 +28 +32 жарко 1017.0 999.2
15 19.09 ЮЗ 3 10 км 10 баллов +24.3 +14.4 54 +27 +27 жарко 1016.0 998.1
18 19.09 ЮЗ 1 10 км ясно +19.8 +14.2 70 +23 +23 комфорт 1017.0 998.8 +26.2
21 19.09 З 1 10 км ясно +17.2 +14.1 82 +18 +18 1018.0 999.7
00 20.09 штиль 0 10 км ясно +14.4 +13.4 94 +14 +14 1019.0 1000.5
03 20.09 штиль 0 7000 м ясно +12.9 +12.4 97 +12 +12 1019.0 1000.4 +12.8

 

Местоположение метеостанции Воложин (Минская область, Беларусь): широта 54.09 долгота 26.52 высота над уровнем моря 155 м.

В архиве по умолчанию представлена погода в Воложине за последнюю неделю. Архивные данные за месяц целиком и за предыдущие месяцы, начиная с января 2011 года, Вы можете получить, выбрав интересующий диапазон дат из раскрывающегося списка и нажав кнопку "Ввод!".


*Определитесь, кто Вы:
робот инопланетянин человек

Внимание! Время в таблицах - всемирное. Для получения местного времени необходимо прибавить поправку, которая в Воложине равна 3 ч.

Смотрите также архив погоды в соседних городах и на ближайших метеорологических станциях:

Погода в Ошмянах (Гродненская область, Беларусь) (54 км)
Погода в Вилейке (Минская область, Беларусь) (56 км)
Погода в Столбцах (Минская область, Беларусь) (69 км)
Погода в Новогрудке (Гродненская область, Беларусь) (70 км)
Погода в Минске (город Минск, Беларусь) (75 км)
Погода в Лиде (Гродненская область, Беларусь) (81 км)
Погода в Нарочи (Минская область, Беларусь) (95 км)
Погода в Vilnius (Литва) (100 км)
Погода в Лынтупах (Витебская область, Беларусь) (108 км)
Погода в Барановичах (Брестская область, Беларусь) (113 км)

Пояснения к столбцам:

Ветер - указаны скорость ветра в м/с - средняя за 10 мин, порывы в срок и между сроками (в фигурных скобках) и направление, откуда дует ветер: С - северный, СВ - северо-восточный, В - восточный, ЮВ - юго-восточный, Ю - южный, ЮЗ - юго-западный, З - западный, СЗ - северо-западный.
Видимость - горизонтальная дальность видимости в метрах или километрах. При видимости от 1 до 10 км при отсутствии осадков обычно наблюдается дымка, при ухудшении видимости до 1 км и менее - туман. В сухую погоду видимость может ухудшаться дымом, пылью или мглою.
Явления - указаны атмосферные явления, наблюдавшиеся в срок или в последний час перед сроком; фигурными скобками обозначены явления, наблюдавшиеся между сроками (за 1-3 часа до срока); квадратными скобками обозначены град или гололедные отложения с указанием их диаметра в мм.
Облачность - указаны через наклонную черту общая и нижняя облачность в баллах и высота нижней границы облаков в метрах; квадратными скобками обозначены формы облаков: Ci - перистые, Cs - перисто-слоистые, Cc - перисто-кучевые, Ac - высококучевые, As - высокослоистые, Sc - слоисто-кучевые, Ns - слоисто-дождевые, Cu - кучевые, Cb - кучево-дождевые. Подробнее классификацию облаков см. в Атласе облаков (PDF).
T - Температура воздуха - температура, измеренная на высоте 2 м над землей.
Td - Температура точки росы - температура, при понижении до которой содержащийся в воздухе водяной пар достигнет насыщения.
f - Относительная влажность воздуха - влажноcть воздуха, измеренная на высоте 2 м над землей.
Te - Эффективная температура - температура, которую ощущает одетый по сезону человек в тени. Характеристика душности погоды. При расчете учитывается влияние влажности воздуха и скорости ветра на теплоощущения человека.
Tes - Эффективная температура на солнце - температура, которую ощущает человек, с поправкой на солнечный нагрев. Характеристика знойности погоды. Зависит от высоты солнца над горизонтом, облачности и скорости ветра. Ночью, в пасмурную погоду, а также при ветре 12 м/с и более поправка равна нулю.
P - Атмосферное давление - приведенное к уровню моря атмосферное давление.
Po - Атмосферное давление - измеренное на уровне метеостанции атмосферное давление.
Tmin - Минимальная температура - минимум температуры воздуха на высоте 2 м над землей.
Tmax - Максимальная температура - максимум температуры воздуха на высоте 2 м над землей.
R - Количество осадков - Количество выпавших осадков за период времени, мм. При наведении курсора мыши на число - период времени, за который выпало указанное количество осадков.
R24 - Количество осадков - Количество выпавших осадков за 24 часа, мм.
S - Снежный покров - Высота снежного покрова, см. При наведении курсора мыши на число - состояние снежного покрова и степень покрытия местности в баллах.